Location: San Pelegr�n
(42.1868°N, 0.0079°E)
Time: 14:26:47
(UTC+00:00)

Cosmos 1455 - Pass Details

Date: 24 January 2020
Orbit: 498 x 524 km, 82.5° (Epoch: 26 February)

Event Time Altitude Azimuth Distance (km) Brightness Sun altitude
Rises 18:47:18 0° 344° (NNW) 2,636 5.9 -19.2°
Reaches altitude 10° 18:49:32 10° 336° (NNW) 1,739 5.0 -19.6°
Maximum altitude 18:53:05 38° 268° (W) 783 3.6 -20.2°
Drops below altitude 10° 18:56:36 10° 199° (SSW) 1,711 5.1 -20.9°
Sets 18:58:47 0° 191° (S) 2,586 6.0 -21.3°
